User: anonymous   Login
Location: Poughquag
(41.6090°N, 73.6820°W)
Time: 05:46:04
(UTC-05:00)
Language:

ZACube-1 - Orbit

View from above orbital plane
View from above orbital plane
View from above satellite
View from above satellite

Ground track
Ground track

The orbit data is extracted from the following two-line orbital elements,

1 39417U 13066B   23331.62279854  .00006013  00000-0  66558-3 0  9998
2 39417  97.7086 287.9093 0054978 108.5767 252.1431 14.86587676541464
Epoch (UTC): 27 November 2023 14:56:49
Eccentricity: 0.0054978
inclination: 97.7086°
perigee height: 570 km
apogee height: 647 km
right ascension of ascending node: 287.9093°
argument of perigee: 108.5767°
revolutions per day: 14.86587676
mean anomaly at epoch: 252.1431°
orbit number at epoch: 54146

The dashed part of the orbit path shows where the satellite is in the earth's shadow,  

DLR